Trenton, NJ

8:50 AM EDT on March 26, 2017 (GMT -0400)
Trenton Mercer

Weather History for KTTN - January, 2011

Change the Weather History Date:

Wednesday, January 26, 2011

  Actual Average Record
Temperature  
Mean Temperature 32 °F 31 °F  
Max Temperature 34 °F 39 °F 72 °F (1950)
Min Temperature 29 °F 24 °F 1 °F (1905)
Degree Days  
Heating Degree Days 33 34  
Month to date heating degree days 957 883  
Since 1 July heating degree days 2782 2778  
Cooling Degree Days 0 0  
Month to date cooling degree days 0 0  
Year to date cooling degree days 0 0  
Moisture  
Dew Point 29 °F    
Average Humidity 79    
Maximum Humidity 92    
Minimum Humidity 66    
Precipitation  
Precipitation 0.85 in 0.11 in 1.50 in (1986)
Month to date precipitation 2.52 2.67  
Year to date precipitation 2.52 2.67  
Sea Level Pressure  
Sea Level Pressure 29.78 in    
Wind  
Wind Speed 12 mph (ENE)    
Max Wind Speed 29 mph    
Max Gust Speed 39 mph    
Visibility 2 miles    
Events Fog , Rain , Snow , Thunderstorm    
T = Trace of Precipitation, MM = Missing Value Source: NWS Daily Summary

Daily Weather History Graph

Daily Weather History Graph

Search for Another Location

Airport or City:

Trip Planner

Search our weather history database for the weather conditions in past years. The results will help you decide how hot, cold, wet, or windy it might be!

Date:

Astronomy

Jan. 26, 2011 Rise Set
Actual Time 7:13 AM EST 5:10 PM EST
Civil Twilight 6:44 AM EST 5:39 PM EST
Nautical Twilight 6:11 AM EST 6:12 PM EST
Astronomical Twilight 5:39 AM EST 6:44 PM EST
Moon 12:29 AM EST 10:47 AM EST
Length of Visible Light 10h 54m
Length of Day
9h 56m
Waning Gibbous, 48% of the Moon is Illuminated
Jan 26
Waning Gibbous
Feb 2
New
Feb 11
First Quarter
Feb 18
Full
Feb 24
Last Quarter

Hourly Weather History & Observations

Time (EST) Temp. Windchill Dew Point Humidity Pressure Visibility Wind Dir Wind Speed Gust Speed Precip Events Conditions
12:53 AM 30.9 °F 27.5 °F 24.1 °F 76% 30.07 in 7.0 mi East 3.5 mph - N/A   Partly Cloudy
1:53 AM 32.0 °F - 23.0 °F 69% 30.05 in 8.0 mi Calm Calm - N/A   Overcast
2:53 AM 32.0 °F - 24.1 °F 73% 30.07 in 7.0 mi Calm Calm - N/A   Overcast
3:53 AM 30.9 °F 27.5 °F 24.1 °F 76% 30.06 in 8.0 mi North 3.5 mph - N/A   Overcast
4:53 AM 32.0 °F 27.5 °F 24.1 °F 73% 30.03 in 8.0 mi ENE 4.6 mph - N/A   Overcast
5:49 AM 33.8 °F 30.8 °F 24.8 °F 70% 30.01 in 2.5 mi East 3.5 mph - 0.00 in Snow Light Snow
5:53 AM 33.1 °F 28.7 °F 25.0 °F 72% 30.01 in 1.2 mi East 4.6 mph - 0.00 in Snow Light Snow
5:59 AM 32.0 °F 27.5 °F 26.6 °F 80% 30.02 in 0.8 mi East 4.6 mph - 0.01 in Snow Light Snow
6:15 AM 32.0 °F 26.4 °F 28.4 °F 87% 30.02 in 0.5 mi East 5.8 mph - 0.03 in Fog , Snow Snow
7:43 AM 32.0 °F 24.8 °F 28.4 °F 87% 30.00 in 0.8 mi East 8.1 mph - 0.02 in Snow Light Snow
7:53 AM 32.0 °F 25.6 °F 28.9 °F 88% 29.99 in 0.5 mi East 6.9 mph - 0.03 in Fog , Snow Snow
8:12 AM 32.0 °F 26.4 °F 28.4 °F 87% 30.01 in 0.2 mi East 5.8 mph - 0.03 in Fog , Snow Heavy Snow
8:33 AM 32.0 °F 24.8 °F 28.4 °F 87% 30.00 in 0.2 mi East 8.1 mph - 0.08 in Fog , Snow Heavy Snow
8:45 AM 32.0 °F 24.8 °F 28.4 °F 87% 29.99 in 0.2 mi East 8.1 mph - 0.09 in Fog , Snow Snow
8:53 AM 32.0 °F 23.6 °F 28.9 °F 88% 29.97 in 0.2 mi East 10.4 mph - 0.10 in Fog , Snow Snow
9:51 AM 32.0 °F 22.5 °F 28.4 °F 87% 29.95 in 0.8 mi East 12.7 mph - 0.06 in Snow Light Snow
9:53 AM 32.0 °F 22.5 °F 28.9 °F 88% 29.94 in 0.8 mi ENE 12.7 mph - 0.06 in Snow Light Snow
10:19 AM 33.8 °F 26.4 °F 30.2 °F 87% 29.93 in 1.2 mi ENE 9.2 mph - 0.01 in Snow Light Snow
10:53 AM 33.1 °F 23.9 °F 30.0 °F 89% 29.91 in 2.0 mi East 12.7 mph - 0.01 in Snow Light Snow
11:09 AM 33.8 °F 24.8 °F 30.2 °F 87% 29.89 in 0.8 mi East 12.7 mph - 0.00 in Snow Light Snow
11:53 AM 33.1 °F 24.9 °F 30.0 °F 89% 29.85 in 0.5 mi ENE 10.4 mph - 0.03 in Fog , Snow Snow
12:25 PM 33.8 °F 25.3 °F 30.2 °F 87% 29.81 in 1.5 mi ENE 11.5 mph - 0.03 in Snow Light Snow
12:33 PM 33.8 °F 25.3 °F 30.2 °F 87% 29.81 in 2.5 mi ENE 11.5 mph - 0.03 in Snow Light Snow
12:40 PM 33.8 °F 24.3 °F 30.2 °F 87% 29.80 in 4.0 mi ENE 13.8 mph - 0.03 in Snow Light Snow
12:53 PM 34.0 °F 25.0 °F 30.0 °F 85% 29.79 in 3.0 mi East 12.7 mph - 0.03 in Snow Light Snow
1:24 PM 33.8 °F 24.3 °F 30.2 °F 87% 29.77 in 2.5 mi East 13.8 mph - 0.01 in Snow Light Snow
1:53 PM 34.0 °F 24.2 °F 30.0 °F 85% 29.73 in 2.0 mi East 15.0 mph - 0.02 in Snow Light Snow
2:08 PM 33.8 °F 24.3 °F 30.2 °F 87% 29.73 in 1.2 mi East 13.8 mph 23.0 mph 0.01 in Snow Light Snow
2:42 PM 33.8 °F 23.9 °F 30.2 °F 87% 29.70 in 2.5 mi ENE 15.0 mph - 0.04 in Rain Light Rain
2:53 PM 34.0 °F 25.0 °F 30.0 °F 85% 29.70 in 3.0 mi ENE 12.7 mph 19.6 mph 0.04 in   Overcast
3:04 PM 33.8 °F 24.8 °F 30.2 °F 87% 29.70 in 2.5 mi ENE 12.7 mph - 0.00 in Rain Light Freezing Rain
3:20 PM 33.8 °F 25.8 °F 30.2 °F 87% 29.69 in 1.5 mi ENE 10.4 mph 20.7 mph 0.01 in Rain Light Freezing Rain
3:46 PM 33.8 °F 24.3 °F 30.2 °F 87% 29.67 in 2.5 mi ENE 13.8 mph 20.7 mph 0.01 in Rain Light Freezing Rain
3:53 PM 34.0 °F 24.2 °F 30.0 °F 85% 29.66 in 2.5 mi ENE 15.0 mph 20.7 mph 0.01 in Rain Light Freezing Rain
4:01 PM 33.8 °F 24.3 °F 30.2 °F 87% 29.66 in 3.0 mi ENE 13.8 mph 21.9 mph 0.00 in Rain Light Freezing Rain
4:10 PM 33.8 °F 23.5 °F 30.2 °F 87% 29.64 in 2.5 mi ENE 16.1 mph 21.9 mph 0.00 in Rain Light Freezing Rain
4:53 PM 33.1 °F 23.0 °F 28.9 °F 85% 29.61 in 3.0 mi ENE 15.0 mph 25.3 mph 0.00 in Rain Light Freezing Rain
5:05 PM 33.8 °F 21.6 °F 28.4 °F 81% 29.61 in 2.5 mi ENE 23.0 mph 32.2 mph 0.00 in Rain Light Freezing Rain
5:53 PM 33.1 °F 20.9 °F 28.9 °F 85% 29.56 in 3.0 mi NE 21.9 mph 27.6 mph 0.01 in Rain Light Freezing Rain
6:01 PM 33.8 °F 22.5 °F 28.4 °F 81% 29.57 in 4.0 mi NE 19.6 mph 28.8 mph 0.01 in Rain Light Freezing Rain
6:51 PM 33.8 °F 21.0 °F 28.4 °F 81% 29.54 in 3.0 mi NE 25.3 mph 39.1 mph 0.04 in Rain Light Freezing Rain
6:52 PM 33.1 °F 20.3 °F 28.9 °F 85% 29.53 in 2.5 mi NE 24.2 mph 39.1 mph 0.05 in Snow Light Snow
7:03 PM 33.8 °F 21.3 °F 28.4 °F 81% 29.51 in 1.5 mi NE 24.2 mph 39.1 mph 0.02 in Snow Light Snow
7:29 PM 33.8 °F 25.8 °F 30.2 °F 87% 29.59 in 1.2 mi NNE 10.4 mph 23.0 mph 0.09 in Snow Light Snow
7:53 PM 33.1 °F 23.9 °F 28.9 °F 85% 29.57 in 0.5 mi NNE 12.7 mph 24.2 mph 0.11 in Fog , Snow Snow
8:53 PM 32.0 °F 20.1 °F 28.9 °F 88% 29.52 in 0.5 mi NNE 19.6 mph 33.4 mph 0.10 in Fog Fog
9:05 PM 32.0 °F 20.5 °F 28.4 °F 87% 29.54 in 0.8 mi NNE 18.4 mph 32.2 mph 0.01 in Snow , Thunderstorm Light Snow
9:42 PM 32.0 °F 20.1 °F 28.4 °F 87% 29.56 in 0.5 mi NNE 19.6 mph 29.9 mph 0.03 in Fog Fog
9:53 PM 32.0 °F 20.1 °F 28.9 °F 88% 29.55 in 0.5 mi North 19.6 mph 26.5 mph 0.04 in Fog Fog
10:01 PM 32.0 °F 20.8 °F 28.4 °F 87% 29.56 in 0.5 mi NNE 17.3 mph 26.5 mph 0.01 in Fog , Thunderstorm Fog
10:22 PM 32.0 °F 20.1 °F 30.2 °F 93% 29.56 in 0.5 mi North 19.6 mph 26.5 mph 0.03 in Fog Fog
10:53 PM 32.0 °F 21.6 °F 30.0 °F 92% 29.54 in 0.2 mi North 15.0 mph - 0.08 in Fog Fog
11:53 PM 32.0 °F 21.6 °F 28.9 °F 88% 29.56 in 0.5 mi North 15.0 mph 21.9 mph 0.07 in Fog , Snow Snow